Location: Wellington
(41.3000°S, 174.7830°E)
Time: 08:56:02
(UTC+13:00)

Cosmos 1242 Rocket - Pass Details

Date: 24 January 2019
Orbit: 449 x 490 km, 81.2° (Epoch: 20 February)

Event Time Altitude Azimuth Distance (km) Brightness Sun altitude
Rises 22:53:25 0° 199° (SSW) 2,607 7.6 -19.1°
Reaches altitude 10° 22:55:40 10° 208° (SSW) 1,717 6.5 -19.4°
Maximum altitude 22:59:07 35° 274° (W) 833 4.0 -19.8°
Enters shadow 23:00:49 23° 322° (NW) 1,112 4.2 -20.0°
